This demonstration page uses our WeatherBlox Daily Observations layout. Learn more.

Left ArrowRight Arrow

39.01783, -85.05884

Hourly Observations for December 30, 2017

Temp ( °F °C ) Dew Point ( °F °C ) Humidity (%) Winds ( mph kmh ) Pressure ( in mb ) Visibility ( mi km ) Precip ( " mm )
12:52 am 00:52 Cloudy with Mist and Fog 22 -5.6 21 -6.1 96 96 W 6 9 30.16 1021 4 6 0.00 0.00
1:48 am 01:48 Cloudy with Mist and Fog 21 -6 21 -6 100 100 W 5 7 30.18 1022 3 5 0.00 0.00
1:52 am 01:52 Cloudy with Mist and Fog 22 -5.6 21 -6.1 96 96 W 6 9 30.16 1021 4 6 0.00 0.00
2:52 am 02:52 Cloudy with Mist and Fog 22 -5.6 21 -6.1 96 96 WNW 5 7 30.16 1021 4 6 0.00 0.00
3:16 am 03:16 Cloudy with Mist and Fog 21 -6.1 21 -6.1 100 100 WSW 3 6 30.18 1022 5 8 0.00 0.00
3:21 am 03:21 Cloudy with Mist and Fog 22 -5.6 21 -6.1 96 96 WSW 3 6 30.18 1022 5 8 0.00 0.00
3:52 am 03:52 Cloudy with Mist and Fog 22 -5.6 21 -6.1 96 96 W 6 9 30.16 1021 5 8 0.00 0.00
4:52 am 04:52 Cloudy with Mist and Fog 22 -5.6 21 -6.1 96 96 WSW 5 7 30.14 1021 5 8 0.00 0.00
5:52 am 05:52 Cloudy with Mist and Fog 22 -5.6 21 -6.1 96 96 WNW 9 15 30.15 1021 5 8 0.00 0.00
5:57 am 05:57 Cloudy with Mist and Fog 23 -5 21 -6.1 92 92 WNW 8 13 30.18 1022 5 8 0.00 0.00
6:17 am 06:17 Cloudy with Mist and Fog 22 -5.6 20 -6.7 92 92 N 10 17 30.18 1022 5 8 0.00 0.00
6:52 am 06:52 Cloudy with Mist and Fog 21 -6.1 19 -7.2 92 92 NNW 9 15 30.17 1022 5 8 0.00 0.00
7:52 am 07:52 Cloudy with Mist and Fog 20 -6.7 17 -8.3 89 89 WNW 12 19 30.16 1022 6 10 0.00 0.00
8:03 am 08:03 Cloudy with Mist and Fog 20 -6.7 17 -8.3 89 89 WNW 8 13 30.24 1024 5 8 0.00 0.00
8:52 am 08:52 Cloudy with Mist and Fog 19 -7.2 15 -9.4 84 84 WNW 10 17 30.19 1022 5 8 0.00 0.00
9:52 am 09:52 Cloudy with Light Snow 19 -7.2 15 -9.4 84 84 W 9 15 30.21 1023 4 6 0.00 0.03
10:52 am 10:52 Cloudy with Light Snow 19 -7.2 14 -10 81 81 WNW 14 22 30.23 1024 4 6 0.00 0.03
11:52 am 11:52 Cloudy with Light Snow 20 -6.7 14 -10 78 78 WNW 10 17 30.21 1023 4 6 0.00 0.03
12:52 pm 12:52 Cloudy with Light Snow 20 -6.7 14 -10 78 78 NW 16 26 30.20 1023 5 8 0.00 0.03
1:52 pm 13:52 Cloudy with Haze 19 -7.2 11 -11.7 71 71 NW 16 26 30.21 1023 5 8 0.00 0.03
2:52 pm 14:52 Cloudy 18 -7.8 9 -12.8 68 68 WNW 15 24 30.22 1024 10 16 0.00 0.00
3:52 pm 15:52 Cloudy 16 -8.9 7 -13.9 67 67 NW 15 24 30.25 1024 10 16 0.00 0.03
4:52 pm 16:52 Cloudy 15 -9.4 5 -15 64 64 NW 13 20 30.29 1026 10 16 0.00 0.00
5:49 pm 17:49 Mostly Cloudy 12 -11 1 -17 62 62 NW 13 20 30.36 1028 10 16 0.00 0.00
5:52 pm 17:52 Mostly Cloudy 13 -10.6 2 -16.7 61 61 NW 12 19 30.32 1027 10 16 0.00 0.00
6:52 pm 18:52 Partly Cloudy 10 -12.2 2 -16.7 69 69 NNW 10 17 30.35 1028 10 16 0.00 0.00
7:52 pm 19:52 Mostly Cloudy 9 -12.8 1 -17.2 70 70 NNW 14 22 30.36 1028 10 16 0.00 0.00
8:52 pm 20:52 Mostly Cloudy 8 -13.3 0 -17.8 69 69 NNW 13 20 30.40 1029 10 16 0.00 0.00
9:52 pm 21:52 Partly Cloudy 6 -14.4 -1 -18.3 73 73 NNW 6 9 30.41 1030 10 16 0.00 0.00
10:52 pm 22:52 Mostly Clear 6 -14.4 -2 -18.9 69 69 NNW 6 9 30.41 1030 10 16 0.00 0.00
11:52 pm 23:52 Partly Cloudy 6 -14.4 -1 -18.3 73 73 N 6 9 30.41 1030 10 16 0.00 0.00

Powered by AerisWeather